Regional Weather Roundup
Issued by NWS Cleveland, OH

Home | Current Version | Previous Version | Text Only | Print | Product List | Glossary Off
Versions: 1 2 3 4 5 6 7 8 9 10 11 12 13 14 15 16 17 18 19 20 21 22 23 24 25 26 27 28 29 30 31 32 33 34 35 36 37 38 39 40 41 42 43 44 45 46 47 48 49 50

000
ASUS41 KCLE 280000
RWRCLE
OHIO REGIONAL WEATHER ROUNDUP
NATIONAL WEATHER SERVICE WILMINGTON, OH
700 PM EST TUE JAN 27 2015

NOTE: "FAIR" INDICATES FEW OR NO CLOUDS BELOW 12,000 FEET WITH NO
SIGNIFICANT WEATHER AND/OR OBSTRUCTIONS TO VISIBILITY.

OHZ001>008-015>018-024>027-034-035-043-044-280100-
   NORTHWEST OHIO

CITY           SKY/WX    TMP DP  RH WIND       PRES   REMARKS
DEFIANCE       CLEAR     22   9  57 N5        30.20R WCI  16
FINDLAY        CLEAR     17   9  70 W5        30.16R WCI  10
TOLEDO EXPRESS CLEAR     22  12  65 N8        30.18R WCI  12
TOLEDO EXEC    CLEAR     22  10  60 N5        30.19R WCI  16
LIMA           CLEAR     17  10  74 CALM      30.17R
$$

OHZ009>014-019>023-028>033-038-089-280100-
   NORTHEAST OHIO

CITY           SKY/WX    TMP DP  RH WIND       PRES   REMARKS
CLE-HOPKINS    PTCLDY    17  11  77 N6        30.18R WCI   9
CLE-LAKEFRONT  PTCLDY    16  10  77 W5        30.16R WCI   9
CUY CO. ARPT   NOT AVBL
LORAIN-ELYRIA  CLEAR     16  11  80 N5        30.16R WCI   9
ASHTABULA      FLURRIES  18  13  80 N6        30.12R WCI  10
AKRON-CANTON   CLOUDY    16   7  67 NW10      30.10R WCI   4
WOOSTER        NOT AVBL
MANSFIELD      CLEAR     14   8  77 W5        30.12R WCI   6
YOUNGSTOWN     FLURRIES  18  13  80 NW8       30.07R WCI   8
$$

OHZ042-051>053-060>062-070>072-077>081-280100-
  SOUTHWEST OHIO

CITY           SKY/WX    TMP DP  RH WIND       PRES   REMARKS
CINC-COVINGTON CLEAR     24  14  65 N7        30.17R WCI  16
CINC-LUNKEN    CLEAR     23  10  57 N10       30.22R WCI  12
HAMILTON       CLEAR     22  13  68 N5        30.22R WCI  16
DAYTON         NOT AVBL
WRIGHT-PAT AFB CLEAR     19  12  73 NW5       30.19R WCI  12
DAYTON GENERAL CLEAR     20  13  74 N7        30.17R WCI  11
WILMINGTON     CLEAR     19   9  65 N9        30.16R WCI   8
$$

OHZ036-037-039>041-045>050-054>059-063>069-073>076-082>088-280100-
  CENTRAL AND SOUTHEAST OHIO

CITY           SKY/WX    TMP DP  RH WIND       PRES   REMARKS
COLUMBUS       PTCLDY    19  11  70 NW9       30.17R WCI   8
OSU AIRPORT    PTCLDY    16  10  77 NW6       30.16R WCI   7
BOLTON FIELD   CLEAR     18  10  73 N7        30.17R WCI   8
RICKENBACK AFB NOT AVBL
NEWARK         CLEAR     17  10  74 NW7       30.15R WCI   8
MARION         CLEAR     14   7  73 NW5       30.16R WCI   6
LANCASTER      PTCLDY    18  11  74 N7        30.16R WCI   9
ZANESVILLE     CLOUDY    20  13  74 NW6       30.13R WCI  12
NEW PHILLY     PTCLDY    19   8  62 NW9       30.13R WCI   8
$$


USA.gov is the U.S. government's official web portal to all federal, state and local government web resources and services.